FW8448 Weather Reports


Display with metric or nautical units.
time (UTC)temp
F
wind
direction
speed
MPH
gust
MPH
rain 1hr
in
rain 24hr
in
rain mn
in
humidity
%
barometer
mb
20260902011557 81 0 0.0 0.0 0.00 0.00 0.00 86 1016.8
20260902010058 81 0 0.0 1.0 0.00 0.00 0.00 86 1016.7
20260902004558 82 0 0.0 2.0 0.00 0.00 0.00 85 1016.6
20260902003059 83 0 0.0 2.0 0.00 0.00 0.00 84 1016.6
20260902001602 85 0 0.0 1.0 0.00 0.00 0.00 82 1016.6
20260902000058 86 0 0.0 2.0 0.00 0.00 0.00 79 1016.8
20260901234610 88 0 0.0 2.0 0.00 0.00 0.00 77 1016.7
20260901233108 89 0 0.0 2.0 0.00 0.00 0.00 74 1016.8
20260901231600 90 202 0.0 6.0 0.00 0.00 0.00 72 1016.8
20260901230058 91 208 1.0 5.0 0.00 0.00 0.00 69 1016.8
20260901224602 91 259 2.0 7.0 0.00 0.00 0.00 69 1016.8
20260901223101 92 209 1.0 7.0 0.00 0.00 0.00 69 1016.8
20260901221607 92 199 1.0 7.0 0.00 0.00 0.00 69 1016.7
20260901220117 93 209 1.0 4.0 0.00 0.00 0.00 69 1016.6
20260901214558 93 240 0.0 5.0 0.00 0.00 0.00 67 1016.6
20260901213113 93 198 2.0 7.0 0.00 0.00 0.00 65 1016.8
20260901211600 93 181 1.0 8.0 0.00 0.00 0.00 67 1016.8
20260901210100 93 192 2.0 9.0 0.00 0.00 0.00 64 1016.9
20260901204605 92 271 6.0 11.0 0.00 0.00 0.00 66 1016.7
20260901203053 92 292 6.0 13.0 0.00 0.00 0.00 66 1016.8
20260901201602 93 234 2.0 15.0 0.00 0.00 0.00 65 1016.8
20260901200101 93 273 6.0 13.0 0.00 0.00 0.00 65 1017.0
20260901194605 93 273 2.0 6.0 0.00 0.00 0.00 66 1017.0
20260901193103 93 267 2.0 11.0 0.00 0.00 0.00 67 1017.1
20260901191553 92 225 2.0 13.0 0.00 0.00 0.00 66 1017.1
20260901190056 92 229 2.0 10.0 0.00 0.00 0.00 70 1017.3
20260901184559 92 194 4.0 9.0 0.00 0.00 0.00 69 1017.3
20260901183051 92 217 3.0 10.0 0.00 0.00 0.00 67 1017.5
20260901181602 91 205 2.0 8.0 0.00 0.00 0.00 70 1017.5
20260901180057 91 213 2.0 12.0 0.00 0.00 0.00 71 1017.7
20260901174554 90 360 2.0 11.0 0.00 0.00 0.00 71 1017.7
20260901173100 90 216 1.0 9.0 0.00 0.00 0.00 73 1017.7
20260901171557 89 212 3.0 12.0 0.00 0.00 0.00 74 1017.8
20260901170119 89 241 2.0 4.0 0.00 0.00 0.00 75 1018.0
20260901164608 88 0 0.0 0.0 0.00 0.00 0.00 75 1018.3
20260901163056 87 0 0.0 0.0 0.00 0.00 0.00 75 1018.5
20260901161603 87 0 0.0 0.0 0.00 0.00 0.00 74 1018.5
20260901154615 86 0 0.0 0.0 0.00 0.00 0.00 77 1018.7
20260901153118 85 0 0.0 0.0 0.00 0.00 0.00 79 1018.7
20260901151606 84 0 0.0 0.0 0.00 0.00 0.00 80 1018.6
20260901150109 84 0 0.0 0.0 0.00 0.00 0.00 82 1018.7
20260901144602 83 0 0.0 0.0 0.00 0.00 0.00 83 1018.8
20260901143058 82 0 0.0 0.0 0.00 0.00 0.00 84 1018.7
20260901141559 81 0 0.0 0.0 0.00 0.00 0.00 85 1018.8
20260901140108 80 0 0.0 0.0 0.00 0.00 0.00 86 1018.8
20260901134600 79 0 0.0 5.0 0.00 0.00 0.00 88 1018.9
20260901133109 78 270 1.0 6.0 0.00 0.00 0.00 89 1018.9
20260901131602 77 204 1.0 5.0 0.00 0.00 0.00 90 1019.1
20260901130058 76 215 1.0 4.0 0.00 0.00 0.00 92 1019.1
20260901124606 74 0 1.0 4.0 0.00 0.00 0.00 93 1019.2
20260901123106 73 0 1.0 4.0 0.00 0.00 0.00 95 1018.9
20260901121606 72 0 0.0 1.0 0.00 0.00 0.00 96 1018.8
20260901120111 71 0 0.0 2.0 0.00 0.00 0.00 96 1018.6
20260901114559 71 0 0.0 1.0 0.00 0.00 0.00 96 1018.6
20260901113100 71 0 0.0 1.0 0.00 0.00 0.00 96 1018.4
20260901111558 71 0 0.0 0.0 0.00 0.00 0.00 95 1018.3
20260901110105 71 0 0.0 0.0 0.00 0.00 0.00 95 1018.1
20260901104557 72 0 0.0 0.0 0.00 0.00 0.00 95 1017.9
20260901103101 72 0 0.0 0.0 0.00 0.00 0.00 95 1017.6
20260901101601 72 0 0.0 2.0 0.00 0.00 0.00 95 1017.7
20260901094559 72 0 0.0 0.0 0.00 0.00 0.00 95 1017.5
20260901093055 72 0 0.0 1.0 0.00 0.00 0.00 94 1017.5
20260901091558 72 0 0.0 1.0 0.00 0.00 0.00 94 1017.4
20260901090059 72 0 0.0 0.0 0.00 0.00 0.00 94 1017.4
20260901084603 72 0 0.0 2.0 0.00 0.00 0.00 94 1017.2
20260901083059 73 0 0.0 2.0 0.00 0.00 0.00 94 1017.2
20260901081559 73 225 0.0 0.0 0.00 0.00 0.00 94 1017.0
20260901080059 73 0 0.0 1.0 0.00 0.00 0.00 93 1016.9
20260901074601 74 0 0.0 3.0 0.00 0.00 0.00 93 1017.0
20260901073102 74 0 0.0 3.0 0.00 0.00 0.00 93 1017.0
20260901071600 74 0 0.0 1.0 0.00 0.00 0.00 93 1017.1
20260901064557 75 0 0.0 5.0 0.00 0.00 0.00 92 1017.1
20260901063114 75 179 1.0 4.0 0.00 0.00 0.00 92 1017.1
20260901061602 75 229 0.0 3.0 0.00 0.00 0.00 92 1017.0
20260901060059 75 0 0.0 3.0 0.00 0.00 0.00 92 1017.3
20260901054557 76 0 0.0 4.0 0.00 0.00 0.00 91 1017.4
20260901053101 76 226 0.0 3.0 0.00 0.00 0.00 91 1017.4
20260901051618 76 0 0.0 4.0 0.00 0.00 0.00 92 1017.2
20260901050104 75 0 0.0 3.0 0.00 0.00 0.00 92 1017.3
20260901044602 75 0 0.0 2.0 0.00 0.00 0.00 93 1017.2
20260901043100 75 0 0.0 0.0 0.00 0.00 0.00 93 1017.4
20260901041559 76 0 0.0 0.0 0.00 0.00 0.00 92 1017.6
20260901040057 76 0 0.0 2.0 0.00 0.00 0.00 91 1017.7
20260901034609 76 165 0.0 4.0 0.00 0.00 0.00 92 1017.5
20260901033111 76 0 0.0 1.0 0.00 0.00 0.00 92 1017.5
20260901031602 76 0 0.0 1.0 0.00 0.00 0.00 92 1017.8
20260901030058 77 0 0.0 0.0 0.00 0.00 0.00 91 1017.9
20260901024608 77 0 0.0 1.0 0.00 0.00 0.00 91 1018.0
20260901023059 77 176 0.0 3.0 0.00 0.00 0.00 92 1017.8
20260901021601 76 0 0.0 0.0 0.00 0.00 0.00 94 1017.8
20260901014609 76 0 0.0 0.0 0.00 0.00 0.00 93 1017.7
20260901013058 77 0 0.0 0.0 0.00 0.00 0.00 92 1017.6